AEHF-1 (USA 214)

Last updated on Mon Feb 16 2026 00:02:47 GMT+0000 (Coordinated Universal Time)

1 36868U 10039A 26046.26104919 .00000152 00000+0 00000+0 0 9990 2 36868 7.9181 69.6388 0004348 253.6218 305.9099 1.00270514 52434
UTC large
Height (km)
Speed (km/s)
/
Latitude / Longitude
Inclination (degrees)
Orbital Period (minutes)
Azimuth
Elevation
Range (km)
Doppler Factor

Next 0 passes for location: London (51.5072 / 0.1276)

Sorry there are no passes over London.